TimeAKST,TemperatureF,Dew PointF,Humidity,Sea Level PressureIn,VisibilityMPH,Wind Direction,Wind SpeedMPH,Gust SpeedMPH,PrecipitationIn,Events,Conditions,WindDirDegrees,DateUTC
12:16 AM,44.6,23.0,43,29.86,10.0,ENE,17.3,26.5,N/A,,Clear,60,2013-11-06 09:16:00
12:36 AM,44.6,23.0,43,29.86,10.0,NE,15.0,24.2,N/A,,Clear,50,2013-11-06 09:36:00
12:56 AM,44.6,21.2,39,29.86,10.0,WNW,4.6,26.5,N/A,,Clear,290,2013-11-06 09:56:00
1:16 AM,44.6,23.0,43,29.86,10.0,ENE,13.8,31.1,N/A,,Clear,60,2013-11-06 10:16:00
1:36 AM,44.6,21.2,39,29.87,10.0,ENE,13.8,21.9,N/A,,Clear,70,2013-11-06 10:36:00
1:56 AM,44.6,21.2,39,29.87,10.0,East,4.6,23.0,N/A,,Clear,80,2013-11-06 10:56:00
2:16 AM,42.8,21.2,42,29.88,10.0,NNE,4.6,26.5,N/A,,Clear,20,2013-11-06 11:16:00
2:36 AM,44.6,21.2,39,29.88,10.0,NNE,5.8,29.9,N/A,,Clear,30,2013-11-06 11:36:00
2:56 AM,42.8,21.2,42,29.89,10.0,NE,11.5,16.1,N/A,,Clear,50,2013-11-06 11:56:00
3:16 AM,42.8,21.2,42,29.89,10.0,NE,11.5,21.9,N/A,,Clear,50,2013-11-06 12:16:00
3:36 AM,42.8,19.4,39,29.89,10.0,ENE,12.7,31.1,N/A,,Clear,60,2013-11-06 12:36:00
3:56 AM,42.8,21.2,42,29.90,10.0,NW,4.6,28.8,N/A,,Clear,310,2013-11-06 12:56:00
4:16 AM,42.8,21.2,42,29.89,10.0,ENE,19.6,28.8,N/A,,Clear,60,2013-11-06 13:16:00
4:36 AM,42.8,19.4,39,29.90,10.0,East,18.4,28.8,N/A,,Clear,80,2013-11-06 13:36:00
4:56 AM,42.8,19.4,39,29.91,10.0,East,10.4,23.0,N/A,,Clear,90,2013-11-06 13:56:00
5:16 AM,42.8,19.4,39,29.92,10.0,North,5.8,18.4,N/A,,Clear,350,2013-11-06 14:16:00
5:36 AM,39.2,21.2,49,29.92,10.0,Calm,Calm,-,N/A,,Clear,0,2013-11-06 14:36:00
5:56 AM,39.2,19.4,45,29.91,10.0,ENE,15.0,25.3,N/A,,Clear,70,2013-11-06 14:56:00
6:16 AM,41.0,21.2,45,29.92,10.0,ENE,9.2,24.2,N/A,,Clear,70,2013-11-06 15:16:00
6:36 AM,42.8,19.4,39,29.92,10.0,East,12.7,21.9,N/A,,Clear,80,2013-11-06 15:36:00
6:56 AM,39.2,19.4,45,29.93,10.0,East,4.6,-,N/A,,Clear,100,2013-11-06 15:56:00
7:16 AM,41.0,17.6,39,29.92,10.0,East,18.4,34.5,N/A,,Clear,80,2013-11-06 16:16:00
7:36 AM,41.0,17.6,39,29.93,10.0,North,5.8,32.2,N/A,,Clear,360,2013-11-06 16:36:00
7:56 AM,39.2,19.4,45,29.94,10.0,North,3.5,31.1,N/A,,Clear,360,2013-11-06 16:56:00
8:16 AM,41.0,17.6,39,29.95,10.0,Calm,Calm,-,N/A,,Clear,0,2013-11-06 17:16:00
8:36 AM,39.2,19.4,45,29.95,10.0,NE,6.9,16.1,N/A,,Clear,40,2013-11-06 17:36:00
8:56 AM,41.0,19.4,42,29.96,10.0,NE,8.1,16.1,N/A,,Clear,50,2013-11-06 17:56:00
9:16 AM,41.0,17.6,39,29.97,10.0,NNE,5.8,20.7,N/A,,Clear,30,2013-11-06 18:16:00
9:36 AM,41.0,17.6,39,29.98,10.0,NE,6.9,-,N/A,,Clear,50,2013-11-06 18:36:00
9:56 AM,41.0,19.4,42,29.97,10.0,East,20.7,26.5,N/A,,Clear,80,2013-11-06 18:56:00
10:16 AM,42.8,17.6,36,29.97,10.0,East,13.8,27.6,N/A,,Clear,80,2013-11-06 19:16:00
10:36 AM,42.8,17.6,36,29.98,10.0,NNE,4.6,27.6,N/A,,Clear,20,2013-11-06 19:36:00
10:56 AM,42.8,19.4,39,29.98,10.0,NE,6.9,23.0,N/A,,Clear,50,2013-11-06 19:56:00
11:16 AM,42.8,17.6,36,29.99,10.0,ENE,6.9,-,N/A,,Clear,60,2013-11-06 20:16:00
11:36 AM,42.8,17.6,36,29.98,10.0,East,16.1,24.2,N/A,,Clear,90,2013-11-06 20:36:00
11:56 AM,42.8,17.6,36,29.98,10.0,East,18.4,31.1,N/A,,Clear,90,2013-11-06 20:56:00
12:16 PM,42.8,17.6,36,29.98,10.0,ESE,12.7,25.3,N/A,,Clear,120,2013-11-06 21:16:00
12:36 PM,42.8,17.6,36,29.98,10.0,East,20.7,25.3,N/A,,Clear,100,2013-11-06 21:36:00
12:56 PM,42.8,17.6,36,29.99,10.0,East,12.7,24.2,N/A,,Clear,100,2013-11-06 21:56:00
1:16 PM,42.8,17.6,36,29.99,10.0,East,12.7,24.2,N/A,,Clear,100,2013-11-06 22:16:00
1:36 PM,42.8,17.6,36,29.99,10.0,East,18.4,23.0,N/A,,Clear,80,2013-11-06 22:36:00
1:56 PM,42.8,17.6,36,29.99,10.0,East,18.4,-,N/A,,Clear,90,2013-11-06 22:56:00
2:16 PM,42.8,17.6,36,29.99,10.0,ESE,15.0,26.5,N/A,,Clear,110,2013-11-06 23:16:00
2:36 PM,42.8,17.6,36,29.99,10.0,ENE,6.9,-,N/A,,Clear,70,2013-11-06 23:36:00
2:56 PM,41.0,17.6,39,29.99,10.0,ENE,5.8,-,N/A,,Partly Cloudy,70,2013-11-06 23:56:00
3:16 PM,41.0,15.8,36,29.99,10.0,East,5.8,-,N/A,,Partly Cloudy,100,2013-11-07 00:16:00
3:36 PM,39.2,15.8,39,29.99,10.0,South,6.9,-,N/A,,Partly Cloudy,170,2013-11-07 00:36:00
3:56 PM,37.4,15.8,41,29.99,10.0,WNW,4.6,-,N/A,,Partly Cloudy,290,2013-11-07 00:56:00
4:16 PM,37.4,15.8,41,29.99,10.0,SSW,5.8,-,N/A,,Partly Cloudy,210,2013-11-07 01:16:00
4:36 PM,37.4,14.0,38,29.99,10.0,NNW,4.6,-,N/A,,Partly Cloudy,340,2013-11-07 01:36:00
4:56 PM,35.6,15.8,44,30.00,10.0,South,3.5,-,N/A,,Partly Cloudy,190,2013-11-07 01:56:00
5:16 PM,35.6,15.8,44,30.00,10.0,NW,6.9,-,N/A,,Partly Cloudy,320,2013-11-07 02:16:00
5:36 PM,37.4,15.8,41,30.00,10.0,NNE,4.6,-,N/A,,Partly Cloudy,30,2013-11-07 02:36:00
5:56 PM,35.6,15.8,44,30.00,10.0,NNW,3.5,-,N/A,,Partly Cloudy,330,2013-11-07 02:56:00
6:16 PM,32.0,15.8,51,29.99,10.0,Calm,Calm,-,N/A,,Partly Cloudy,0,2013-11-07 03:16:00
6:36 PM,33.8,17.6,52,29.98,10.0,Calm,Calm,-,N/A,,Partly Cloudy,0,2013-11-07 03:36:00
6:56 PM,32.0,15.8,51,29.99,10.0,Calm,Calm,-,N/A,,Partly Cloudy,0,2013-11-07 03:56:00
7:16 PM,33.8,19.4,56,29.99,10.0,East,8.1,-,N/A,,Partly Cloudy,90,2013-11-07 04:16:00
7:36 PM,32.0,12.2,44,30.00,10.0,ESE,9.2,-,N/A,,Partly Cloudy,120,2013-11-07 04:36:00
7:56 PM,33.8,15.8,48,30.00,10.0,East,10.4,17.3,N/A,,Partly Cloudy,100,2013-11-07 04:56:00
8:16 PM,33.8,15.8,48,29.99,10.0,ESE,4.6,-,N/A,,Partly Cloudy,120,2013-11-07 05:16:00
8:36 PM,33.8,14.0,44,29.99,10.0,Calm,Calm,-,N/A,,Partly Cloudy,0,2013-11-07 05:36:00
8:56 PM,33.8,17.6,52,29.99,10.0,Calm,Calm,-,N/A,,Partly Cloudy,0,2013-11-07 05:56:00
9:16 PM,33.8,15.8,48,29.99,10.0,Calm,Calm,-,N/A,,Partly Cloudy,0,2013-11-07 06:16:00
9:36 PM,33.8,12.2,41,30.00,10.0,ESE,4.6,-,N/A,,Partly Cloudy,110,2013-11-07 06:36:00
9:56 PM,33.8,14.0,44,29.99,10.0,ESE,8.1,-,N/A,,Partly Cloudy,110,2013-11-07 06:56:00
10:16 PM,33.8,14.0,44,30.00,10.0,ESE,9.2,-,N/A,,Clear,120,2013-11-07 07:16:00
10:36 PM,33.8,15.8,48,30.00,10.0,East,6.9,-,N/A,,Clear,80,2013-11-07 07:36:00
10:56 PM,33.8,15.8,48,29.99,10.0,Calm,Calm,-,N/A,,Clear,0,2013-11-07 07:56:00
11:16 PM,32.0,15.8,51,29.99,10.0,Calm,Calm,-,N/A,,Clear,0,2013-11-07 08:16:00
11:36 PM,32.0,14.0,48,29.99,10.0,ENE,4.6,-,N/A,,Clear,70,2013-11-07 08:36:00
11:56 PM,30.2,14.0,51,29.98,10.0,Calm,Calm,-,N/A,,Clear,0,2013-11-07 08:56:00